Flag for Netherlands

Past Weather in Rotterdam, Netherlands — Yesterday and Last 2 Weeks

Now
55 °F

Cool.


Feels Like: 53 °F
Forecast: 72 / 51 °F
Wind: 9 mph from Northeast

Location: Rotterdam Zestienhoven Airport
Current Time: Sep 18, 2020 at 11:24:50 pm
Latest Report: Sep 18, 2020 at 10:25 pm
Visibility: N/A
Pressure30.15 "Hg
Humidity: 77%
Dew Point: 48 °F
Location of RotterdamLocation

Past Weather in Rotterdam — Graph

°F

Rotterdam Temperature Yesterday

Maximum temperature yesterday: 66 °F (at 2:55 pm)
Minimum temperature yesterday: 48 °F (at 5:55 am)
Average temperature yesterday: 58 °F

High & Low Weather Summary for the Past Weeks

 TemperatureHumidityPressure
High90 °F (Sep 15, 4:25 pm)100% (Sep 3, 11:25 pm)30.39 "Hg (Sep 3, 11:25 pm)
Low45 °F (Sep 18, 6:55 am)38% (Sep 15, 5:25 pm)29.98 "Hg (Sep 11, 8:25 pm)
Average62 °F80%30.16 "Hg
* Reported Sep 3 9:25 pm — Sep 18 9:55 pm, Rotterdam. Weather by CustomWeather, © 2020

Note: Actual official high and low records may vary slightly from our data, if they occured in-between our weather recording intervals... More about our weather records

Rotterdam Weather History for the Previous 24 Hours

Scroll right to see more
 ConditionsComfort  
Time TempWeatherWind HumidityBarometerVisibility
9:55 pm
Fri, Sep 18
55 °FCool.8 mph77%30.15 "HgN/A
9:25 pm57 °FCool.10 mph72%30.18 "HgN/A
8:55 pm55 °FCool.9 mph77%30.15 "HgN/A
8:25 pm59 °FCool.9 mph68%30.15 "HgN/A
7:55 pm59 °FCool.9 mph68%30.15 "HgN/A
7:25 pm63 °FMild.9 mph59%30.15 "HgN/A
6:55 pm66 °FMild.10 mph52%30.15 "HgN/A
6:25 pm68 °FMild.14 mph49%30.15 "HgN/A
5:55 pm70 °FMild.12 mph46%30.15 "HgN/A
5:25 pm70 °FMild.17 mph46%30.15 "HgN/A
4:55 pm70 °FMild.15 mph43%30.18 "HgN/A
4:25 pm70 °FMild.15 mph50%30.18 "HgN/A
3:55 pm70 °FMild.16 mph46%30.18 "HgN/A
3:25 pm70 °FMild.17 mph46%30.18 "HgN/A
2:25 pm68 °FMild.16 mph49%30.21 "HgN/A
1:55 pm68 °FMild.15 mph49%30.21 "HgN/A
1:25 pm66 °FMild.16 mph52%30.24 "HgN/A
12:55 pm64 °FMild.15 mph56%30.24 "HgN/A
12:25 pm63 °FMild.13 mph56%30.24 "HgN/A
11:55 am61 °FRefreshingly cool.15 mph59%30.24 "HgN/A
11:25 am61 °FClear.13 mph59%30.27 "HgN/A
10:55 am57 °FClear.12 mph67%30.27 "HgN/A
10:25 am57 °FClear.10 mph63%30.27 "HgN/A
9:55 am54 °FClear.12 mph72%30.27 "HgN/A
9:25 am52 °FClear.10 mph77%30.27 "HgN/A
8:55 am50 °FClear.9 mph82%30.27 "HgN/A
8:25 am48 °FClear.8 mph82%30.27 "HgN/A
7:55 am45 °FQuite cool.8 mph87%30.27 "HgN/A
7:25 am46 °FClear.6 mph82%30.27 "HgN/A
6:55 am45 °FQuite cool.8 mph87%30.27 "HgN/A
6:25 am46 °FClear.7 mph87%30.27 "HgN/A
5:55 am46 °FCool.7 mph87%30.27 "HgN/A
5:25 am48 °FCool.6 mph82%30.27 "HgN/A
4:55 am46 °FCool.7 mph87%30.27 "HgN/A
4:25 am46 °FCool.6 mph82%30.27 "HgN/A
3:55 am46 °FCool.7 mph82%30.30 "HgN/A
3:25 am46 °FCool.8 mph87%30.30 "HgN/A
2:55 am46 °FCool.8 mph87%30.30 "HgN/A
2:25 am46 °FCool.9 mph87%30.30 "HgN/A
1:55 am48 °FCool.8 mph82%30.33 "HgN/A
1:25 am50 °FCool.8 mph76%30.33 "HgN/A
12:55 am50 °FCool.9 mph76%30.33 "HgN/A
12:25 am52 °FClear.8 mph77%30.33 "HgN/A
11:55 pm
Thu, Sep 17
54 °FClear.7 mph72%30.33 "HgN/A
11:25 pm54 °FClear.7 mph72%30.33 "HgN/A
Weather by CustomWeather, © 2020

See weather overview